TimeCST,TemperatureF,Dew PointF,Humidity,Sea Level PressureIn,VisibilityMPH,Wind Direction,Wind SpeedMPH,Gust SpeedMPH,PrecipitationIn,Events,Conditions,WindDirDegrees,DateUTC
12:56 AM,30.0,19.9,66,30.17,-9999.0,NNW,19.6,-,N/A,,Unknown,330,2011-11-10 06:56:00
1:56 AM,30.0,21.0,69,30.18,-9999.0,NNW,18.4,26.5,N/A,,Unknown,330,2011-11-10 07:56:00
2:56 AM,28.0,19.9,72,30.19,-9999.0,NW,17.3,-,N/A,,Unknown,320,2011-11-10 08:56:00
3:56 AM,27.0,19.9,75,30.19,-9999.0,NNW,17.3,-,N/A,,Unknown,330,2011-11-10 09:56:00
4:56 AM,26.1,19.0,75,30.20,-9999.0,NNW,16.1,-,N/A,,Unknown,330,2011-11-10 10:56:00
5:56 AM,25.0,19.0,78,30.22,-9999.0,NNW,13.8,-,N/A,,Unknown,330,2011-11-10 11:56:00
6:56 AM,24.1,18.0,77,30.23,-9999.0,NW,13.8,-,N/A,,Unknown,320,2011-11-10 12:56:00
7:56 AM,25.0,19.0,78,30.24,-9999.0,NW,11.5,-,N/A,,Unknown,320,2011-11-10 13:56:00
8:56 AM,28.0,19.9,72,30.24,-9999.0,NW,13.8,-,N/A,,Unknown,320,2011-11-10 14:56:00
9:56 AM,30.9,21.0,67,30.22,-9999.0,North,16.1,-,N/A,,Unknown,350,2011-11-10 15:56:00
10:56 AM,34.0,21.0,59,30.21,-9999.0,NNW,12.7,-,N/A,,Unknown,330,2011-11-10 16:56:00
11:56 AM,37.0,21.9,54,30.19,-9999.0,NNW,11.5,-,N/A,,Unknown,340,2011-11-10 17:56:00
12:56 PM,37.9,21.0,51,30.16,-9999.0,NNW,10.4,-,N/A,,Unknown,330,2011-11-10 18:56:00
1:56 PM,39.0,19.0,45,30.13,-9999.0,NW,8.1,-,N/A,,Unknown,310,2011-11-10 19:56:00
2:56 PM,39.9,16.0,38,30.11,-9999.0,WNW,6.9,-,N/A,,Unknown,290,2011-11-10 20:56:00
3:56 PM,37.9,17.1,43,30.09,-9999.0,West,8.1,-,N/A,,Unknown,270,2011-11-10 21:56:00
4:56 PM,36.0,17.1,46,30.07,-9999.0,Calm,Calm,-,N/A,,Unknown,0,2011-11-10 22:56:00
5:56 PM,34.0,17.1,50,30.05,-9999.0,South,4.6,-,N/A,,Unknown,170,2011-11-10 23:56:00
6:56 PM,36.0,16.0,44,30.02,-9999.0,SSW,5.8,-,N/A,,Unknown,210,2011-11-11 00:56:00
7:56 PM,35.1,16.0,46,29.99,-9999.0,South,9.2,-,N/A,,Unknown,190,2011-11-11 01:56:00
8:56 PM,35.1,17.1,48,29.95,-9999.0,SSE,8.1,-,N/A,,Unknown,160,2011-11-11 02:56:00
9:56 PM,34.0,16.0,48,29.93,-9999.0,SSE,9.2,-,N/A,,Unknown,160,2011-11-11 03:56:00
10:56 PM,33.1,16.0,50,29.88,-9999.0,SSE,10.4,-,N/A,,Unknown,160,2011-11-11 04:56:00
11:56 PM,34.0,16.0,48,29.83,-9999.0,South,8.1,-,N/A,,Unknown,170,2011-11-11 05:56:00